timestamp,wind_dir_avg,wind_spd_max_dir,wind_spd_avg,wind_spd_gust,battery_voltage,lat,long
2018-12-16 00:00:00+00:00,317.0,318.0,11.61,13.86,,47.59359,-54.27349
2018-12-16 00:10:00+00:00,318.0,310.0,10.84,13.43,,47.59359,-54.27349
2018-12-16 00:20:00+00:00,314.0,313.0,7.95,9.58,,47.59359,-54.27349
2018-12-16 00:30:00+00:00,308.0,311.0,7.52,9.08,,47.59359,-54.27349
2018-12-16 00:40:00+00:00,310.0,308.0,8.58,10.75,,47.59359,-54.27349
2018-12-16 00:50:00+00:00,316.0,322.0,8.48,11.03,,47.59359,-54.27349
2018-12-16 01:00:00+00:00,321.0,323.0,10.74,12.97,,47.59359,-54.27349
2018-12-16 01:10:00+00:00,313.0,305.0,10.84,13.33,,47.59359,-54.27349
2018-12-16 01:20:00+00:00,314.0,316.0,9.25,11.38,,47.59359,-54.27349
2018-12-16 01:30:00+00:00,316.0,317.0,8.83,11.33,,47.59359,-54.27349
2018-12-16 01:40:00+00:00,308.0,307.0,11.41,13.71,,47.59359,-54.27349
2018-12-16 01:50:00+00:00,314.0,314.0,10.71,12.81,,47.59359,-54.27349
2018-12-16 02:00:00+00:00,313.0,305.0,11.02,13.12,,47.59359,-54.27349
2018-12-16 02:10:00+00:00,313.0,313.0,11.16,12.85,,47.59359,-54.27349
2018-12-16 02:20:00+00:00,309.0,316.0,10.54,13.24,,47.59359,-54.27349
2018-12-16 02:30:00+00:00,306.0,306.0,8.49,10.38,,47.59359,-54.27349
2018-12-16 02:40:00+00:00,317.0,323.0,9.15,10.98,,47.59359,-54.27349
2018-12-16 02:50:00+00:00,318.0,310.0,8.95,10.5,,47.59359,-54.27349
2018-12-16 03:00:00+00:00,309.0,307.0,9.11,10.59,,47.59359,-54.27349
2018-12-16 03:10:00+00:00,302.0,303.0,9.05,10.19,,47.59359,-54.27349
2018-12-16 03:20:00+00:00,299.0,290.0,9.53,11.2,,47.59359,-54.27349
2018-12-16 03:30:00+00:00,302.0,305.0,8.11,9.68,,47.59359,-54.27349
2018-12-16 03:40:00+00:00,298.0,294.0,8.39,9.51,,47.59359,-54.27349
2018-12-16 03:50:00+00:00,289.0,293.0,8.42,9.92,,47.59359,-54.27349
2018-12-16 04:00:00+00:00,292.0,295.0,8.75,10.35,,47.59359,-54.27349
2018-12-16 04:10:00+00:00,288.0,288.0,9.84,11.42,,47.59359,-54.27349
2018-12-16 04:20:00+00:00,295.0,296.0,8.49,11.06,,47.59359,-54.27349
2018-12-16 04:30:00+00:00,292.0,291.0,7.56,8.79,,47.59359,-54.27349
2018-12-16 04:40:00+00:00,282.0,279.0,7.23,7.86,,47.59359,-54.27349
2018-12-16 04:50:00+00:00,288.0,295.0,8.19,10.24,,47.59359,-54.27349
2018-12-16 05:00:00+00:00,288.0,276.0,8.46,9.5,,47.59359,-54.27349
2018-12-16 05:10:00+00:00,287.0,295.0,8.74,10.01,,47.59359,-54.27349
2018-12-16 05:20:00+00:00,278.0,282.0,7.37,10.02,,47.59359,-54.27349
2018-12-16 05:30:00+00:00,281.0,284.0,7.17,8.32,,47.59359,-54.27349
2018-12-16 05:40:00+00:00,284.0,292.0,8.52,10.62,,47.59359,-54.27349
2018-12-16 05:50:00+00:00,284.0,289.0,8.96,10.66,,47.59359,-54.27349
2018-12-16 06:00:00+00:00,284.0,287.0,9.48,10.7,,47.59359,-54.27349
2018-12-16 06:10:00+00:00,295.0,302.0,7.95,9.07,,47.59359,-54.27349
2018-12-16 06:20:00+00:00,293.0,300.0,9.23,11.67,,47.59359,-54.27349
2018-12-16 06:30:00+00:00,291.0,284.0,9.2,12.97,,47.59359,-54.27349
2018-12-16 06:40:00+00:00,306.0,303.0,9.9,11.96,,47.59359,-54.27349
2018-12-16 06:50:00+00:00,296.0,289.0,9.91,11.11,,47.59359,-54.27349
2018-12-16 07:00:00+00:00,309.0,311.0,8.73,10.35,,47.59359,-54.27349
2018-12-16 07:10:00+00:00,302.0,306.0,9.98,12.48,,47.59359,-54.27349
2018-12-16 07:20:00+00:00,300.0,305.0,9.42,11.56,,47.59359,-54.27349
2018-12-16 07:30:00+00:00,304.0,308.0,9.08,10.71,,47.59359,-54.27349
2018-12-16 07:40:00+00:00,303.0,309.0,8.43,10.75,,47.59359,-54.27349
2018-12-16 07:50:00+00:00,301.0,302.0,9.13,10.93,,47.59359,-54.27349
2018-12-16 08:00:00+00:00,318.0,322.0,11.53,14.16,,47.59359,-54.27349
2018-12-16 08:10:00+00:00,305.0,298.0,8.28,9.84,,47.59359,-54.27349
2018-12-16 08:20:00+00:00,304.0,305.0,7.81,9.61,,47.59359,-54.27349
2018-12-16 08:30:00+00:00,292.0,301.0,9.55,11.19,,47.59359,-54.27349
2018-12-16 08:40:00+00:00,297.0,298.0,8.29,9.58,,47.59359,-54.27349
2018-12-16 08:50:00+00:00,282.0,291.0,6.84,7.56,,47.59359,-54.27349
2018-12-16 09:00:00+00:00,291.0,296.0,8.59,9.6,,47.59359,-54.27349
2018-12-16 09:10:00+00:00,299.0,290.0,8.29,9.58,,47.59359,-54.27349
2018-12-16 09:20:00+00:00,315.0,306.0,10.59,12.67,,47.59359,-54.27349
2018-12-16 09:30:00+00:00,317.0,320.0,10.29,15.16,,47.59359,-54.27349
2018-12-16 09:40:00+00:00,314.0,317.0,9.09,10.63,,47.59359,-54.27349
2018-12-16 09:50:00+00:00,308.0,306.0,9.57,11.27,,47.59359,-54.27349
2018-12-16 10:00:00+00:00,320.0,317.0,7.97,9.96,,47.59359,-54.27349
2018-12-16 10:10:00+00:00,309.0,317.0,7.61,9.03,,47.59359,-54.27349
2018-12-16 10:20:00+00:00,325.0,321.0,6.97,9.38,,47.59359,-54.27349
2018-12-16 10:30:00+00:00,330.0,337.0,10.32,13.88,,47.59359,-54.27349
2018-12-16 10:40:00+00:00,326.0,313.0,12.43,16.64,,47.59359,-54.27349
2018-12-16 10:50:00+00:00,320.0,321.0,10.1,13.83,,47.59359,-54.27349
2018-12-16 11:00:00+00:00,328.0,325.0,8.25,9.69,,47.59359,-54.27349
2018-12-16 11:10:00+00:00,314.0,322.0,7.29,8.47,,47.59359,-54.27349
2018-12-16 11:20:00+00:00,311.0,306.0,7.98,10.14,,47.59359,-54.27349
2018-12-16 11:30:00+00:00,314.0,321.0,7.86,9.96,,47.59359,-54.27349
2018-12-16 11:40:00+00:00,318.0,318.0,7.23,8.53,,47.59359,-54.27349
2018-12-16 11:50:00+00:00,310.0,310.0,7.63,10.68,,47.59359,-54.27349
2018-12-16 12:00:00+00:00,313.0,305.0,8.43,11.39,,47.59359,-54.27349
2018-12-16 12:10:00+00:00,330.0,327.0,6.87,9.08,,47.59359,-54.27349
2018-12-16 12:20:00+00:00,330.0,336.0,7.56,8.55,,47.59359,-54.27349
2018-12-16 12:30:00+00:00,335.0,341.0,9.32,11.05,,47.59359,-54.27349
2018-12-16 12:40:00+00:00,332.0,331.0,8.65,11.02,,47.59359,-54.27349
2018-12-16 12:50:00+00:00,338.0,333.0,12.1,13.44,,47.59359,-54.27349
2018-12-16 13:00:00+00:00,338.0,345.0,8.94,11.34,,47.59359,-54.27349
2018-12-16 13:10:00+00:00,334.0,330.0,11.49,14.62,,47.59359,-54.27349
2018-12-16 13:20:00+00:00,341.0,346.0,11.27,14.26,,47.59359,-54.27349
2018-12-16 13:30:00+00:00,332.0,341.0,10.59,13.28,,47.59359,-54.27349
2018-12-16 13:40:00+00:00,339.0,341.0,10.48,12.63,,47.59359,-54.27349
2018-12-16 13:50:00+00:00,337.0,342.0,10.95,12.54,,47.59359,-54.27349
2018-12-16 14:00:00+00:00,322.0,319.0,10.38,13.62,,47.59359,-54.27349
2018-12-16 14:10:00+00:00,337.0,333.0,9.35,13.99,,47.59359,-54.27349
2018-12-16 14:20:00+00:00,335.0,335.0,10.42,13.01,,47.59359,-54.27349
2018-12-16 14:30:00+00:00,341.0,342.0,10.63,12.54,,47.59359,-54.27349
2018-12-16 14:40:00+00:00,342.0,331.0,11.51,14.39,,47.59359,-54.27349
2018-12-16 14:50:00+00:00,346.0,345.0,12.84,14.21,,47.59359,-54.27349
2018-12-16 15:00:00+00:00,345.0,339.0,11.25,14.22,,47.59359,-54.27349
2018-12-16 15:10:00+00:00,354.0,351.0,11.36,12.86,,47.59359,-54.27349
2018-12-16 15:20:00+00:00,341.0,337.0,13.22,15.63,,47.59359,-54.27349
2018-12-16 15:30:00+00:00,348.0,356.0,10.51,12.34,,47.59359,-54.27349
2018-12-16 15:40:00+00:00,345.0,341.0,10.46,12.39,,47.59359,-54.27349
2018-12-16 15:50:00+00:00,334.0,333.0,9.74,12.2,,47.59359,-54.27349
2018-12-16 16:00:00+00:00,350.0,351.0,10.1,12.35,,47.59359,-54.27349
2018-12-16 16:10:00+00:00,335.0,327.0,10.27,12.14,,47.59359,-54.27349
2018-12-16 16:20:00+00:00,336.0,333.0,11.83,13.53,,47.59359,-54.27349
2018-12-16 16:30:00+00:00,329.0,326.0,11.16,13.15,,47.59359,-54.27349
2018-12-16 16:40:00+00:00,340.0,343.0,9.18,10.99,,47.59359,-54.27349
2018-12-16 16:50:00+00:00,343.0,346.0,10.02,11.82,,47.59359,-54.27349
2018-12-16 17:00:00+00:00,347.0,344.0,9.73,11.5,,47.59359,-54.27349
2018-12-16 17:10:00+00:00,345.0,351.0,11.54,12.87,,47.59359,-54.27349
2018-12-16 17:20:00+00:00,331.0,327.0,8.79,11.28,,47.59359,-54.27349
2018-12-16 17:30:00+00:00,342.0,349.0,11.41,12.98,,47.59359,-54.27349
2018-12-16 17:40:00+00:00,329.0,331.0,9.05,10.53,,47.59359,-54.27349
2018-12-16 17:50:00+00:00,335.0,335.0,9.87,11.2,,47.59359,-54.27349
2018-12-16 18:00:00+00:00,340.0,330.0,10.61,11.91,,47.59359,-54.27349
2018-12-16 18:10:00+00:00,335.0,331.0,11.09,13.62,,47.59359,-54.27349
2018-12-16 18:20:00+00:00,344.0,347.0,9.42,10.22,,47.59359,-54.27349
2018-12-16 18:30:00+00:00,335.0,332.0,9.69,11.11,,47.59359,-54.27349
2018-12-16 18:40:00+00:00,348.0,349.0,10.08,11.4,,47.59359,-54.27349
2018-12-16 18:50:00+00:00,347.0,348.0,10.13,12.13,,47.59359,-54.27349
2018-12-16 19:00:00+00:00,347.0,345.0,9.65,11.19,,47.59359,-54.27349
2018-12-16 19:10:00+00:00,333.0,331.0,9.43,10.7,,47.59359,-54.27349
2018-12-16 19:20:00+00:00,334.0,343.0,9.84,11.76,,47.59359,-54.27349
2018-12-16 19:30:00+00:00,324.0,324.0,10.91,12.22,,47.59359,-54.27349
2018-12-16 19:40:00+00:00,331.0,338.0,10.95,13.07,,47.59359,-54.27349
2018-12-16 19:50:00+00:00,324.0,322.0,9.45,12.78,,47.59359,-54.27349
2018-12-16 20:00:00+00:00,317.0,324.0,8.36,9.62,,47.59359,-54.27349
2018-12-16 20:10:00+00:00,315.0,313.0,7.25,9.05,,47.59359,-54.27349
2018-12-16 20:20:00+00:00,312.0,314.0,9.21,10.59,,47.59359,-54.27349
2018-12-16 20:30:00+00:00,320.0,321.0,6.36,7.6,,47.59359,-54.27349
2018-12-16 20:40:00+00:00,324.0,327.0,7.82,10.6,,47.59359,-54.27349
2018-12-16 20:50:00+00:00,323.0,326.0,9.34,10.62,,47.59359,-54.27349
2018-12-16 21:00:00+00:00,335.0,334.0,8.23,9.49,,47.59359,-54.27349
2018-12-16 21:10:00+00:00,338.0,345.0,8.74,11.04,,47.59359,-54.27349
2018-12-16 21:20:00+00:00,341.0,343.0,7.71,9.12,,47.59359,-54.27349
2018-12-16 21:30:00+00:00,330.0,328.0,7.58,9.58,,47.59359,-54.27349
2018-12-16 21:40:00+00:00,2.0,7.0,6.52,7.52,,47.59359,-54.27349
2018-12-16 21:50:00+00:00,5.0,3.0,8.07,10.1,,47.59359,-54.27349
2018-12-16 22:00:00+00:00,353.0,348.0,6.18,6.9,,47.59359,-54.27349
2018-12-16 22:10:00+00:00,358.0,351.0,6.45,8.57,,47.59359,-54.27349
2018-12-16 22:20:00+00:00,342.0,348.0,5.24,6.04,,47.59359,-54.27349
2018-12-16 22:30:00+00:00,345.0,353.0,5.06,6.32,,47.59359,-54.27349
2018-12-16 22:40:00+00:00,329.0,326.0,5.32,6.88,,47.59359,-54.27349
2018-12-16 22:50:00+00:00,319.0,323.0,5.34,6.76,,47.59359,-54.27349
2018-12-16 23:00:00+00:00,320.0,319.0,4.34,5.22,,47.59359,-54.27349
2018-12-16 23:10:00+00:00,324.0,323.0,4.53,5.91,,47.59359,-54.27349
2018-12-16 23:20:00+00:00,329.0,322.0,5.56,6.51,,47.59359,-54.27349
2018-12-16 23:30:00+00:00,340.0,344.0,5.88,7.22,,47.59359,-54.27349
2018-12-16 23:40:00+00:00,352.0,355.0,6.03,7.14,,47.59359,-54.27349
2018-12-16 23:50:00+00:00,347.0,342.0,7.7,9.51,,47.59359,-54.27349
